ヴィルト第3彗星

86P/Wild 3 (2022)

English version
Home page
Updated on June 13, 2021

---------------------------------------------------------------------

・ プロフィール

・ 軌道要素

Epoch 2022 Jan. 21.0 TT = JDT 2459600.5
T 2022 Feb. 7.59888 TT                                  MPCW
q   2.2606655            (2000.0)            P               Q
n   0.14423111     Peri.  179.40480     -0.31262887     +0.91521030
a   3.6010577      Node    72.35582     -0.87259242     -0.17094909
e   0.3722218      Incl.   15.47526     -0.37529409     -0.36491988
P   6.83
From 73 observations 1994 Feb. 10-2015 June 20, mean residual 0".7.
     Nongravitational parameters A1 = +0.72, A2 = +0.0624.

・ 光度変化

        m1 = 13.0 + 5 logΔ + 15.0 log r

---------------------------------------------------------------------

軌道要素はM.P.E.C. 2018-D91に掲載されたものです。
光度グラフはComet for Windowsで作成したものです。

---------------------------------------------------------------------

Copyright(C) Seiichi Yoshida (comet@aerith.net). All rights reserved.